This is the latest recevied weather packets stored in our database for station/object KC5TXI. If no packets are shown the sender has not sent any weather packets the latest 10 day(s).
| Time | Temp. | Humidity | Pressure | Rain* | Wind** | Luminosity | Snow |
|---|---|---|---|---|---|---|---|
| 1787602287 | 43.89° C | 24% | 1014 hPa | 0 mm | - | 612 W/m² | - |
| 1787601981 | 43.33° C | 24% | 1014.1 hPa | 0 mm | - | 623 W/m² | - |
| 1787601676 | 42.78° C | 25% | 1014.3 hPa | 0 mm | - | 665 W/m² | - |
| 1787601370 | 42.78° C | 25% | 1014.2 hPa | 0 mm | - | 655 W/m² | - |
| 1787601069 | 42.78° C | 26% | 1014.5 hPa | 0 mm | - | 673 W/m² | - |
| 1787600764 | 43.33° C | 24% | 1014.5 hPa | 0 mm | - | 666 W/m² | - |
| 1787600460 | 42.78° C | 26% | 1014.4 hPa | 0 mm | - | 642 W/m² | - |
| 1787600155 | 43.33° C | 25% | 1014.5 hPa | 0 mm | - | 638 W/m² | - |
| 1787599852 | 42.78° C | 26% | 1014.4 hPa | 0 mm | - | 594 W/m² | - |
| 1787599548 | 43.33° C | 26% | 1014.5 hPa | 0 mm | - | 564 W/m² | - |
| 1787599244 | 43.33° C | 26% | 1014.4 hPa | 0 mm | - | 602 W/m² | - |
| 1787598939 | 43.89° C | 25% | 1014.6 hPa | 0 mm | - | 634 W/m² | - |
| 1787598635 | 43.33° C | 27% | 1014.7 hPa | 0 mm | - | 576 W/m² | - |
| 1787598329 | 42.78° C | 27% | 1014.7 hPa | 0 mm | - | 606 W/m² | - |
| 1787598026 | 42.22° C | 27% | 1014.6 hPa | 0 mm | - | 641 W/m² | - |
| 1787597725 | 42.78° C | 26% | 1014.9 hPa | 0 mm | - | 615 W/m² | - |
| 1787597424 | 42.22° C | 27% | 1014.7 hPa | 0 mm | - | 645 W/m² | - |
| 1787597119 | 42.78° C | 27% | 1014.9 hPa | 0 mm | - | 662 W/m² | - |
| 1787596815 | 42.78° C | 26% | 1014.8 hPa | 0 mm | - | 638 W/m² | - |
| 1787596510 | 42.78° C | 27% | 1014.8 hPa | 0 mm | - | 622 W/m² | - |
| 1787596205 | 42.22° C | 28% | 1015.1 hPa | 0 mm | - | 615 W/m² | - |
| 1787595902 | 42.22° C | 28% | 1015.1 hPa | 0 mm | - | 575 W/m² | - |
| 1787595596 | 42.22° C | 28% | 1015.2 hPa | 0 mm | - | 592 W/m² | - |
| 1787595293 | 42.22° C | 28% | 1015.4 hPa | 0 mm | - | 610 W/m² | - |
| 1787594992 | 42.22° C | 29% | 1015.4 hPa | 0 mm | - | 590 W/m² | - |
* Rain latest hour (hover to see other rain measurements)
** Current wind speed in m/s (hover to see current wind gust speed)